DW0110 Weather Reports


time (UTC)temp
C
wind
direction
speed
KPH
gust
KPH
rain 1hr
cm
rain 24hr
cm
rain mn
cm
humidity
%
barometer
mb
20260507050833 5 233 0.0 0.0 0.00 0.00 0.00 86 1012.6
20260507050326 6 233 0.0 0.0 0.00 0.00 0.00 86 1012.6
20260507045840 6 233 0.0 0.0 0.00 0.00 0.00 86 1012.7
20260507045334 6 233 0.0 0.0 0.00 0.00 0.00 86 1012.7
20260507044826 6 233 0.0 0.0 0.00 0.00 0.00 86 1012.7
20260507044343 6 233 0.0 0.0 0.00 0.00 0.00 86 1012.6
20260507043835 6 233 0.0 0.0 0.00 0.00 0.00 86 1012.6
20260507043333 6 233 0.0 0.0 0.00 0.00 0.00 86 1012.6
20260507042829 6 233 0.0 0.0 0.00 0.00 0.00 86 1012.5
20260507042323 6 233 0.0 0.0 0.00 0.00 0.00 86 1012.5
20260507041837 6 233 0.0 0.0 0.00 0.00 0.00 86 1012.5
20260507041330 6 233 0.0 0.0 0.00 0.00 0.00 86 1012.5
20260507040827 6 233 0.0 0.0 0.00 0.00 0.00 86 1012.4
20260507040321 6 233 0.0 0.0 0.00 0.00 0.00 86 1012.3
20260507035833 6 233 0.0 0.0 0.00 0.00 0.00 86 1012.3
20260507035349 6 233 0.0 0.0 0.00 0.00 0.00 86 1012.4
20260507034822 6 233 0.0 0.0 0.00 0.00 0.00 86 1012.4
20260507034336 6 233 0.0 0.0 0.00 0.00 0.00 86 1012.3
20260507033829 6 233 0.0 0.0 0.00 0.00 0.00 86 1012.2
20260507033323 6 233 0.0 0.0 0.00 0.00 0.00 86 1012.3
20260507032837 6 233 0.0 0.0 0.00 0.00 0.00 86 1012.2
20260507032334 6 233 0.0 8.0 0.00 0.00 0.00 86 1012.2
20260507031829 6 233 1.6 8.0 0.00 0.00 0.00 86 1012.1
20260507031400 6 233 0.0 0.0 0.00 0.00 0.00 86 1012.0
20260507030831 6 233 0.0 0.0 0.00 0.00 0.00 86 1012.1
20260507030323 6 233 0.0 0.0 0.00 0.00 0.00 86 1012.1
20260507025836 6 233 0.0 0.0 0.00 0.00 0.00 86 1011.9
20260507025329 6 233 0.0 0.0 0.00 0.00 0.00 87 1011.9
20260507024823 6 233 0.0 0.0 0.00 0.00 0.00 86 1011.9
20260507024337 6 233 0.0 0.0 0.00 0.00 0.00 86 1012.0
20260507023830 6 233 0.0 0.0 0.00 0.00 0.00 87 1012.0
20260507023323 6 233 0.0 0.0 0.00 0.00 0.00 87 1012.1
20260507022837 6 233 0.0 0.0 0.00 0.00 0.00 87 1011.9
20260507022331 6 233 0.0 0.0 0.00 0.00 0.00 87 1011.9
20260507021824 6 233 0.0 0.0 0.00 0.00 0.00 87 1011.9
20260507021400 6 233 0.0 0.0 0.00 0.00 0.00 87 1012.0
20260507020834 6 233 0.0 0.0 0.00 0.00 0.00 87 1012.1
20260507020327 6 233 0.0 0.0 0.00 0.00 0.00 87 1012.3
20260507015842 6 233 0.0 0.0 0.00 0.00 0.00 87 1012.2
20260507015356 6 233 0.0 0.0 0.00 0.00 0.00 87 1012.1
20260507014828 6 233 0.0 0.0 0.00 0.00 0.00 87 1012.1
20260507014322 6 233 0.0 0.0 0.00 0.00 0.00 87 1012.0
20260507013858 6 233 0.0 0.0 0.00 0.00 0.00 87 1011.9
20260507013349 6 233 0.0 0.0 0.00 0.00 0.00 88 1012.0
20260507012821 6 233 0.0 0.0 0.00 0.00 0.00 88 1012.1
20260507012332 6 233 0.0 8.0 0.00 0.00 0.00 88 1012.2
20260507011848 6 233 1.6 8.0 0.00 0.00 0.00 88 1012.2
20260507011339 6 233 0.0 8.0 0.00 0.00 0.00 88 1012.1
20260507010854 6 233 0.0 9.7 0.00 0.00 0.00 88 1012.1
20260507010328 6 233 1.6 9.7 0.00 0.00 0.00 88 1011.9
20260507005824 7 233 0.0 9.7 0.00 0.00 0.00 88 1011.7
20260507005317 7 233 3.2 9.7 0.00 0.00 0.00 88 1011.7
20260507004834 7 233 0.0 0.0 0.00 0.00 0.00 88 1011.3
20260507004327 7 233 0.0 0.0 0.00 0.00 0.00 88 1011.3
20260507003821 7 233 0.0 6.4 0.00 0.00 0.00 88 1011.2
20260507003336 7 233 0.0 6.4 0.00 0.00 0.00 89 1011.1
20260507002851 7 233 0.0 9.7 0.00 0.00 0.00 89 1011.2
20260507002324 7 233 1.6 9.7 0.00 0.00 0.00 89 1011.2
20260507001840 7 233 3.2 12.9 0.00 0.00 0.00 89 1011.1
20260507001334 8 233 6.4 12.9 0.00 0.00 0.00 89 1010.9
20260507000824 8 233 0.0 0.0 0.00 0.00 0.00 88 1010.7
20260507000400 8 233 0.0 0.0 0.00 0.00 0.00 89 1010.7
20260506235832 8 233 0.0 0.0 0.00 0.00 0.00 89 1010.6
20260506235324 8 233 0.0 0.0 0.00 0.00 0.00 89 1010.6
20260506234835 8 233 0.0 0.0 0.00 0.00 0.00 89 1010.5
20260506234335 8 233 0.0 0.0 0.00 0.00 0.00 89 1010.6
20260506233823 8 233 0.0 0.0 0.00 0.00 0.00 89 1010.5
20260506233339 9 233 0.0 0.0 0.00 0.00 0.00 89 1010.4
20260506232833 9 233 0.0 0.0 0.00 0.00 0.00 88 1010.2
20260506232325 9 233 0.0 0.0 0.00 0.00 0.00 88 1010.1
20260506231901 9 233 0.0 0.0 0.00 0.00 0.00 88 1010.1
20260506231333 9 233 0.0 0.0 0.00 0.00 0.00 88 1010.0
20260506230827 9 233 0.0 0.0 0.00 0.00 0.00 88 1009.9
20260506230355 9 233 0.0 0.0 0.00 0.00 0.00 88 1009.9
20260506225827 9 233 0.0 0.0 0.00 0.00 0.00 88 1009.9
20260506225320 9 233 0.0 0.0 0.00 0.00 0.00 88 1009.9
20260506224834 9 233 0.0 0.0 0.00 0.00 0.00 88 1010.0
20260506224327 9 233 0.0 0.0 0.00 0.00 0.00 88 1009.9
20260506223821 9 233 0.0 0.0 0.00 0.00 0.00 88 1009.7
20260506223335 9 233 0.0 0.0 0.00 0.00 0.00 88 1009.7
20260506222831 9 233 0.0 0.0 0.00 0.00 0.00 88 1009.8
20260506222325 9 233 0.0 0.0 0.00 0.00 0.00 88 1009.8
20260506221838 9 233 0.0 0.0 0.00 0.00 0.00 88 1009.7
20260506221331 9 233 0.0 0.0 0.00 0.00 0.00 88 1009.6
20260506220827 9 233 0.0 0.0 0.00 0.00 0.00 88 1009.8
20260506220325 9 233 0.0 0.0 0.00 0.00 0.00 88 1009.7
20260506215838 9 233 0.0 0.0 0.00 0.00 0.00 88 1009.6
20260506215350 9 233 0.0 0.0 0.00 0.00 0.00 88 1009.5
20260506214822 9 233 0.0 0.0 0.00 0.00 0.00 88 1009.3
20260506214338 9 233 0.0 0.0 0.00 0.00 0.00 88 1009.6
20260506213830 10 233 0.0 0.0 0.00 0.00 0.00 88 1009.6
20260506213323 9 233 0.0 0.0 0.00 0.00 0.00 88 1009.7
20260506212839 9 233 0.0 0.0 0.00 0.00 0.00 88 1009.8
20260506212354 9 233 0.0 0.0 0.00 0.00 0.00 88 1009.7
20260506211826 9 233 0.0 0.0 0.00 0.00 0.00 89 1009.8
20260506211318 9 233 0.0 0.0 0.00 0.00 0.00 89 1009.7
20260506210833 9 233 0.0 0.0 0.00 0.00 0.00 89 1009.7
20260506210325 9 233 0.0 0.0 0.00 0.00 0.00 89 1009.7
20260506205842 9 233 0.0 0.0 0.00 0.00 0.00 88 1009.7
20260506205334 9 233 0.0 0.0 0.00 0.00 0.00 88 1009.6
20260506204830 9 233 0.0 0.0 0.00 0.00 0.00 87 1009.6
20260506204346 9 233 0.0 0.0 0.00 0.00 0.00 86 1009.5
20260506203838 9 233 0.0 0.0 0.00 0.00 0.00 85 1009.6
20260506203330 9 233 0.0 0.0 0.00 0.00 0.00 85 1009.6
20260506202845 9 233 0.0 0.0 0.00 0.00 0.00 84 1009.5
20260506202337 9 233 0.0 0.0 0.00 0.00 0.00 83 1009.6
20260506201830 8 233 0.0 0.0 0.00 0.00 0.00 83 1009.6
20260506201327 8 233 0.0 0.0 0.00 0.00 0.00 83 1009.6
20260506200822 8 233 0.0 0.0 0.00 0.00 0.00 82 1009.7
20260506200337 8 233 0.0 0.0 0.00 0.00 0.00 82 1009.8
20260506195830 8 233 0.0 0.0 0.00 0.00 0.00 82 1009.8
20260506195323 8 233 0.0 0.0 0.00 0.00 0.00 82 1009.8
20260506194836 8 233 0.0 0.0 0.00 0.00 0.00 82 1009.7
20260506194333 8 233 0.0 0.0 0.00 0.00 0.00 82 1009.5
20260506193827 8 233 0.0 0.0 0.00 0.00 0.00 82 1009.5
20260506193323 8 233 0.0 0.0 0.00 0.00 0.00 82 1009.6
20260506192831 8 233 0.0 0.0 0.00 0.00 0.00 81 1009.6
20260506192321 8 233 0.0 0.0 0.00 0.00 0.00 81 1009.5
20260506191834 8 233 0.0 0.0 0.00 0.00 0.00 81 1009.5
20260506191328 8 233 0.0 0.0 0.00 0.00 0.00 81 1009.6
20260506190843 8 233 0.0 0.0 0.00 0.00 0.00 82 1009.7
20260506190338 8 233 0.0 0.0 0.00 0.00 0.00 82 1009.7
20260506185832 8 233 0.0 0.0 0.00 0.00 0.00 81 1009.7
20260506185324 8 233 0.0 6.4 0.00 0.00 0.00 82 1009.7
20260506184838 8 233 0.0 6.4 0.00 0.00 0.00 81 1009.8
20260506184332 8 233 0.0 0.0 0.00 0.00 0.00 81 1009.6
20260506183825 8 233 0.0 0.0 0.00 0.00 0.00 81 1009.6
20260506183342 8 233 0.0 3.2 0.00 0.00 0.00 81 1009.6
20260506182838 8 233 0.0 3.2 0.00 0.00 0.00 81 1009.8
20260506182330 8 233 0.0 0.0 0.00 0.00 0.00 81 1009.6
20260506181823 8 233 0.0 0.0 0.00 0.00 0.00 81 1009.6
20260506181337 8 233 0.0 0.0 0.00 0.00 0.00 82 1009.8
20260506180852 7 233 0.0 0.0 0.00 0.00 0.00 82 1009.8
20260506180325 7 233 0.0 0.0 0.00 0.00 0.00 82 1009.9
20260506175836 7 233 0.0 0.0 0.00 0.00 0.00 82 1010.0
20260506175330 8 233 0.0 0.0 0.00 0.00 0.00 81 1009.7
20260506174845 8 233 0.0 0.0 0.00 0.00 0.00 81 1009.6
20260506174338 8 233 0.0 0.0 0.00 0.00 0.00 81 1009.5
20260506173832 8 233 0.0 0.0 0.00 0.00 0.00 81 1009.3
20260506173325 8 233 0.0 0.0 0.00 0.00 0.00 81 1009.3
20260506172840 8 233 0.0 0.0 0.00 0.00 0.00 81 1009.2
20260506172352 8 233 0.0 0.0 0.00 0.00 0.00 81 1009.2
20260506171828 8 233 0.0 0.0 0.00 0.00 0.00 81 1009.0
20260506171322 8 233 0.0 0.0 0.00 0.00 0.00 81 1009.0
20260506170838 8 233 0.0 0.0 0.00 0.00 0.00 81 1008.9
20260506170327 8 233 0.0 0.0 0.00 0.00 0.00 81 1009.0
20260506165821 8 233 0.0 0.0 0.00 0.00 0.00 81 1009.0
20260506165334 8 233 0.0 0.0 0.00 0.00 0.00 81 1009.0
20260506164828 8 233 0.0 0.0 0.00 0.00 0.00 81 1008.9
20260506164324 8 233 0.0 0.0 0.00 0.00 0.00 81 1009.1
20260506163835 8 233 0.0 0.0 0.00 0.00 0.00 81 1009.0
20260506163326 8 233 0.0 0.0 0.00 0.00 0.00 81 1008.9
20260506162839 8 233 0.0 0.0 0.00 0.00 0.00 81 1008.9
20260506162330 8 233 0.0 0.0 0.00 0.00 0.00 81 1008.8
20260506161842 8 233 0.0 0.0 0.00 0.00 0.00 81 1009.0
20260506161340 8 233 0.0 0.0 0.00 0.00 0.00 81 1008.9
20260506160833 7 233 0.0 0.0 0.00 0.00 0.00 81 1008.8
20260506160327 7 233 0.0 0.0 0.00 0.00 0.00 82 1009.0
20260506155819 7 233 0.0 0.0 0.00 0.00 0.00 82 1009.1
20260506155334 7 233 0.0 0.0 0.00 0.00 0.00 81 1009.0
20260506154825 7 233 0.0 0.0 0.00 0.00 0.00 82 1009.1
20260506154322 7 233 0.0 0.0 0.00 0.00 0.00 81 1009.1
20260506153835 7 233 0.0 0.0 0.00 0.00 0.00 81 1009.1
20260506153331 7 233 0.0 0.0 0.00 0.00 0.00 81 1008.9
20260506152825 7 233 0.0 0.0 0.00 0.00 0.00 82 1008.8
20260506152339 7 233 0.0 0.0 0.00 0.00 0.00 81 1008.9
20260506151832 7 233 0.0 0.0 0.00 0.00 0.00 81 1008.8
20260506151326 7 233 0.0 0.0 0.00 0.00 0.00 81 1008.8
20260506150823 7 233 0.0 0.0 0.00 0.00 0.00 81 1008.9
20260506150336 7 233 0.0 0.0 0.00 0.00 0.00 81 1008.9
20260506145852 7 233 0.0 0.0 0.00 0.00 0.00 81 1008.9
20260506145325 7 233 0.0 0.0 0.00 0.00 0.00 81 1008.8
20260506144840 7 233 0.0 0.0 0.00 0.00 0.00 82 1008.7
20260506144352 7 233 0.0 0.0 0.00 0.00 0.00 82 1008.7
20260506143825 7 233 0.0 0.0 0.00 0.00 0.00 82 1008.6
20260506143340 7 233 0.0 0.0 0.00 0.00 0.00 82 1008.5
20260506142832 7 233 0.0 0.0 0.00 0.00 0.00 82 1008.5
20260506142324 7 233 0.0 0.0 0.00 0.00 0.00 82 1008.5
20260506141839 7 233 0.0 0.0 0.00 0.00 0.00 81 1008.4
20260506141333 7 233 0.0 0.0 0.00 0.00 0.00 81 1008.4
20260506140827 7 233 0.0 0.0 0.00 0.00 0.00 82 1008.4
20260506140321 7 233 0.0 0.0 0.00 0.00 0.00 82 1008.4
20260506135838 7 233 0.0 0.0 0.00 0.00 0.00 82 1008.5
20260506135331 7 233 0.0 0.0 0.00 0.00 0.00 82 1008.6
20260506134828 7 233 0.0 0.0 0.00 0.00 0.00 82 1008.6
20260506134322 7 233 0.0 0.0 0.00 0.00 0.00 82 1008.5
20260506133837 7 233 0.0 0.0 0.00 0.00 0.00 82 1008.5
20260506133331 7 233 0.0 0.0 0.00 0.00 0.00 82 1008.5
20260506132824 7 233 0.0 0.0 0.00 0.00 0.00 82 1008.4
20260506132400 7 233 0.0 0.0 0.00 0.00 0.00 82 1008.3
20260506131834 7 233 0.0 0.0 0.00 0.00 0.00 82 1008.3
20260506131327 7 233 0.0 1.6 0.00 0.00 0.00 82 1008.2
20260506130821 7 233 0.0 1.6 0.00 0.00 0.00 82 1008.2
20260506130335 7 233 0.0 0.0 0.00 0.00 0.00 82 1008.2
20260506125827 7 233 0.0 0.0 0.00 0.00 0.00 82 1008.3
20260506125342 7 233 0.0 0.0 0.00 0.00 0.00 82 1008.2
20260506124839 7 233 0.0 0.0 0.00 0.00 0.00 82 1008.3
20260506124355 7 233 0.0 0.0 0.00 0.00 0.00 82 1008.3
20260506123830 7 233 0.0 0.0 0.00 0.00 0.00 82 1008.5
20260506123345 7 233 0.0 0.0 0.00 0.00 0.00 82 1008.5
20260506122821 7 233 0.0 0.0 0.00 0.00 0.00 82 1008.4
20260506122330 7 233 0.0 0.0 0.00 0.00 0.00 82 1008.4
20260506121845 7 233 0.0 0.0 0.00 0.00 0.00 82 1008.3
20260506121338 7 233 0.0 0.0 0.00 0.00 0.00 82 1008.5
20260506120830 7 233 0.0 0.0 0.00 0.00 0.00 82 1008.4
20260506120321 7 233 0.0 0.0 0.00 0.00 0.00 82 1008.5
20260506115833 7 233 0.0 0.0 0.00 0.00 0.00 82 1008.6
20260506115323 7 233 0.0 0.0 0.00 0.00 0.00 82 1008.5
20260506114836 7 233 0.0 0.0 0.00 0.00 0.00 82 1008.4
20260506114352 7 233 0.0 0.0 0.00 0.00 0.00 82 1008.4
20260506113825 7 233 0.0 0.0 0.00 0.00 0.00 82 1008.3
20260506113337 7 233 0.0 0.0 0.00 0.00 0.00 82 1008.0
20260506112832 7 233 0.0 0.0 0.00 0.00 0.00 82 1008.2
20260506112326 7 233 0.0 0.0 0.00 0.00 0.00 82 1008.1
20260506111820 7 233 0.0 0.0 0.00 0.00 0.00 82 1008.0
20260506111356 7 233 0.0 0.0 0.00 0.00 0.00 82 1007.9
20260506110830 7 233 0.0 0.0 0.00 0.00 0.00 82 1008.0
20260506110325 7 233 0.0 0.0 0.00 0.00 0.00 82 1008.0
20260506105838 7 233 0.0 0.0 0.00 0.00 0.00 82 1007.9
20260506105354 7 233 0.0 0.0 0.00 0.00 0.00 82 1008.0
20260506104827 7 233 0.0 0.0 0.00 0.00 0.00 82 1008.3
20260506104320 7 233 0.0 0.0 0.00 0.00 0.00 82 1008.3
20260506103838 7 233 0.0 0.0 0.00 0.00 0.00 82 1008.3
20260506103333 7 233 0.0 0.0 0.00 0.00 0.00 82 1008.3
20260506102826 7 233 0.0 0.0 0.00 0.00 0.00 82 1008.3
20260506102342 7 233 0.0 0.0 0.00 0.00 0.00 82 1008.3
20260506101831 7 233 0.0 0.0 0.00 0.00 0.00 82 1008.6
20260506101322 7 233 0.0 0.0 0.00 0.00 0.00 82 1008.6
20260506100836 7 233 0.0 0.0 0.00 0.00 0.00 82 1008.6
20260506100330 7 233 0.0 0.0 0.00 0.00 0.00 82 1008.3
20260506095823 7 233 0.0 0.0 0.00 0.00 0.00 82 1008.3
20260506095359 7 233 0.0 0.0 0.00 0.00 0.00 82 1008.3
20260506094832 7 233 0.0 0.0 0.00 0.00 0.00 82 1008.3
20260506094325 7 233 0.0 0.0 0.00 0.00 0.00 82 1008.4
20260506093818 7 233 0.0 0.0 0.00 0.00 0.00 82 1008.4
20260506093334 7 233 0.0 0.0 0.00 0.00 0.00 82 1008.1
20260506092828 7 233 0.0 0.0 0.00 0.00 0.00 82 1008.1
20260506092326 7 233 0.0 0.0 0.00 0.00 0.00 82 1008.3
20260506091820 7 233 0.0 0.0 0.00 0.00 0.00 82 1008.0
20260506091334 7 233 0.0 0.0 0.00 0.00 0.00 82 1007.8
20260506090827 7 233 0.0 0.0 0.00 0.00 0.00 82 1007.7
20260506090321 7 233 0.0 0.0 0.00 0.00 0.00 82 1007.7
20260506085855 7 233 0.0 0.0 0.00 0.00 0.00 82 1008.0
20260506085350 7 233 0.0 0.0 0.00 0.00 0.00 82 1008.0
20260506084822 7 233 0.0 0.0 0.00 0.00 0.00 82 1008.3
20260506084335 7 233 0.0 0.0 0.00 0.00 0.00 82 1008.5
20260506083829 7 233 0.0 0.0 0.00 0.00 0.00 82 1008.5
20260506083324 7 233 0.0 0.0 0.00 0.00 0.00 82 1008.4
20260506082837 7 233 0.0 1.6 0.00 0.00 0.00 82 1008.1
20260506082353 7 233 0.0 1.6 0.00 0.00 0.00 82 1008.0
20260506081826 8 233 0.0 0.0 0.00 0.00 0.00 82 1008.3
20260506081319 8 233 0.0 0.0 0.00 0.00 0.00 82 1008.5
20260506080835 8 233 0.0 0.0 0.00 0.00 0.00 82 1008.5
20260506080329 8 233 0.0 0.0 0.00 0.00 0.00 82 1008.4
20260506073335 8 233 0.0 0.0 0.00 0.00 0.00 82 1008.4
20260506072826 8 233 0.0 0.0 0.00 0.00 0.00 82 1008.5
20260506072339 8 233 0.0 0.0 0.00 0.00 0.00 82 1008.4
20260506071857 8 233 0.0 0.0 0.00 0.00 0.00 82 1008.1
20260506071330 8 233 0.0 3.2 0.00 0.00 0.00 82 1008.1
20260506070823 8 233 0.0 3.2 0.00 0.00 0.00 82 1008.2
20260506070337 8 233 0.0 0.0 0.00 0.00 0.00 82 1008.3
20260506062321 8 233 0.0 0.0 0.00 0.00 0.00 82 1008.8
20260506061832 8 233 0.0 0.0 0.00 0.00 0.00 82 1008.7
20260506061324 8 233 0.0 0.0 0.00 0.00 0.00 82 1008.7
20260506060836 8 233 0.0 0.0 0.00 0.00 0.00 82 1008.8
20260506060326 8 233 0.0 0.0 0.00 0.00 0.00 82 1008.6
20260506051340 8 233 0.0 0.0 0.00 0.00 0.00 82 1009.2